Wetterdaten: Montag, 16.12.2013
Datum Zeit Temperatur Luftfeuchte Luftdruck Regen Wind Richtung Richtung Taupunkt Windchill Windben
16.12.2013 00:00 -2,2 C 89 % 1032,3 hPa 0,0 l/m 0,0 km/h (0 Bft) S-SO 157 -3,8 C -0,4 C 0,0 km/h (0 Bft)
16.12.2013 00:05 -1,9 C 89 % 1032,2 hPa 0,0 l/m 0,0 km/h (0 Bft) S-SO 157 -3,5 C -0,4 C 0,0 km/h (0 Bft)
16.12.2013 00:10 -1,7 C 89 % 1032,2 hPa 0,0 l/m 0,0 km/h (0 Bft) S-SO 157 -3,3 C -0,4 C 0,0 km/h (0 Bft)
16.12.2013 00:15 -1,4 C 89 % 1032,2 hPa 0,0 l/m 0,0 km/h (0 Bft) S-SO 157 -3,0 C -0,4 C 0,0 km/h (0 Bft)
16.12.2013 00:20 -1,3 C 89 % 1032,2 hPa 0,0 l/m 0,0 km/h (0 Bft) S-SO 157 -2,9 C -0,4 C 0,0 km/h (0 Bft)
16.12.2013 00:25 -1,3 C 89 % 1032,4 hPa 0,0 l/m 0,0 km/h (0 Bft) S-SO 157 -2,9 C -0,4 C 0,0 km/h (0 Bft)
16.12.2013 00:30 -0,8 C 89 % 1032,4 hPa 0,0 l/m 0,0 km/h (0 Bft) S-SO 157 -2,4 C -0,4 C 0,0 km/h (0 Bft)
16.12.2013 00:35 -1,0 C 89 % 1032,4 hPa 0,0 l/m 0,0 km/h (0 Bft) S-SO 157 -2,6 C -0,4 C 0,0 km/h (0 Bft)
16.12.2013 00:40 -0,6 C 89 % 1032,4 hPa 0,0 l/m 0,0 km/h (0 Bft) S-SO 157 -2,2 C -0,4 C 0,0 km/h (0 Bft)
16.12.2013 00:45 -0,5 C 89 % 1032,1 hPa 0,0 l/m 0,0 km/h (0 Bft) S-SO 157 -2,1 C -0,4 C 0,0 km/h (0 Bft)
16.12.2013 00:50 -0,4 C 89 % 1032,1 hPa 0,0 l/m 0,0 km/h (0 Bft) S-SO 157 -2,0 C -0,4 C 0,0 km/h (0 Bft)
16.12.2013 00:55 -0,5 C 88 % 1032,1 hPa 0,0 l/m 0,0 km/h (0 Bft) S-SO 157 -2,2 C -0,4 C 0,0 km/h (0 Bft)
16.12.2013 01:00 0,1 C 88 % 1032,1 hPa 0,0 l/m 0,0 km/h (0 Bft) S-SO 157 -1,6 C -0,4 C 0,0 km/h (0 Bft)
16.12.2013 01:05 0,2 C 88 % 1032,2 hPa 0,0 l/m 0,0 km/h (0 Bft) S-SO 157 -1,5 C -0,4 C 0,0 km/h (0 Bft)
16.12.2013 01:10 0,1 C 88 % 1032,2 hPa 0,0 l/m 0,0 km/h (0 Bft) S-SO 157 -1,6 C -0,4 C 0,0 km/h (0 Bft)
16.12.2013 01:15 0,1 C 87 % 1032,2 hPa 0,0 l/m 0,0 km/h (0 Bft) S-SO 157 -1,8 C -0,4 C 0,0 km/h (0 Bft)
16.12.2013 01:20 0,2 C 86 % 1032,2 hPa 0,0 l/m 0,0 km/h (0 Bft) S-SO 157 -1,9 C -0,4 C 0,0 km/h (0 Bft)
16.12.2013 01:25 0,0 C 85 % 1032,1 hPa 0,0 l/m 0,0 km/h (0 Bft) S-SO 157 -2,2 C -0,4 C 0,0 km/h (0 Bft)
16.12.2013 01:30 0,3 C 84 % 1032,1 hPa 0,0 l/m 0,0 km/h (0 Bft) S-SO 157 -2,1 C -0,4 C 0,0 km/h (0 Bft)
16.12.2013 01:35 0,4 C 83 % 1032,1 hPa 0,0 l/m 0,0 km/h (0 Bft) S-SO 157 -2,1 C -0,4 C 0,0 km/h (0 Bft)
16.12.2013 01:40 0,4 C 83 % 1032,1 hPa 0,0 l/m 0,0 km/h (0 Bft) S-SO 157 -2,1 C -0,4 C 0,0 km/h (0 Bft)
16.12.2013 01:45 0,3 C 82 % 1032,0 hPa 0,0 l/m 0,0 km/h (0 Bft) S-SO 157 -2,4 C -0,4 C 0,0 km/h (0 Bft)
16.12.2013 01:50 0,2 C 81 % 1032,0 hPa 0,0 l/m 0,0 km/h (0 Bft) S-SO 157 -2,7 C -0,4 C 0,0 km/h (0 Bft)
16.12.2013 01:55 0,0 C 80 % 1032,0 hPa 0,0 l/m 0,0 km/h (0 Bft) S-SO 157 -3,0 C -0,4 C 0,0 km/h (0 Bft)
16.12.2013 02:00 -0,1 C 80 % 1032,0 hPa 0,0 l/m 0,0 km/h (0 Bft) S-SO 157 -3,1 C -0,4 C 0,0 km/h (0 Bft)
16.12.2013 02:03 0,0 C 80 % 1032,1 hPa 0,0 l/m 0,0 km/h (0 Bft) S-SO 157 -3,0 C -0,4 C 0,0 km/h (0 Bft)
16.12.2013 02:05 0,0 C 80 % 1032,1 hPa 0,0 l/m 0,0 km/h (0 Bft) S-SO 157 -3,0 C -0,4 C 0,0 km/h (0 Bft)
16.12.2013 02:10 -0,2 C 79 % 1032,1 hPa 0,0 l/m 0,0 km/h (0 Bft) S-SO 157 -3,4 C -0,4 C 0,0 km/h (0 Bft)
16.12.2013 02:15 0,0 C 80 % 1032,1 hPa 0,0 l/m 0,0 km/h (0 Bft) S-SO 157 -3,0 C -0,4 C 0,0 km/h (0 Bft)
16.12.2013 02:20 0,6 C 79 % 1032,1 hPa 0,0 l/m 0,0 km/h (0 Bft) S-SO 157 -2,6 C -0,4 C 0,0 km/h (0 Bft)
16.12.2013 02:25 0,4 C 78 % 1032,1 hPa 0,0 l/m 0,0 km/h (0 Bft) S-SO 157 -3,0 C -0,4 C 0,0 km/h (0 Bft)
16.12.2013 02:30 0,0 C 78 % 1032,1 hPa 0,0 l/m 0,0 km/h (0 Bft) S-SO 157 -3,4 C -0,4 C 0,0 km/h (0 Bft)
16.12.2013 02:35 -0,2 C 78 % 1032,1 hPa 0,0 l/m 0,0 km/h (0 Bft) S-SO 157 -3,6 C -0,4 C 0,0 km/h (0 Bft)
16.12.2013 02:40 0,5 C 78 % 1032,1 hPa 0,0 l/m 0,0 km/h (0 Bft) S-SO 157 -2,9 C -0,4 C 0,0 km/h (0 Bft)
16.12.2013 02:45 0,2 C 78 % 1032,1 hPa 0,0 l/m 0,0 km/h (0 Bft) S-SO 157 -3,2 C -0,4 C 0,0 km/h (0 Bft)
16.12.2013 02:50 0,5 C 77 % 1032,1 hPa 0,0 l/m 0,0 km/h (0 Bft) S-SO 157 -3,1 C -0,4 C 0,0 km/h (0 Bft)
16.12.2013 02:55 0,3 C 77 % 1032,1 hPa 0,0 l/m 0,0 km/h (0 Bft) S-SO 157 -3,2 C -0,4 C 0,0 km/h (0 Bft)
16.12.2013 03:00 0,3 C 77 % 1032,1 hPa 0,0 l/m 0,0 km/h (0 Bft) S-SO 157 -3,2 C -0,4 C 0,0 km/h (0 Bft)
16.12.2013 03:05 0,1 C 77 % 1031,7 hPa 0,0 l/m 0,0 km/h (0 Bft) S-SO 157 -3,4 C -0,4 C 0,0 km/h (0 Bft)
16.12.2013 03:10 0,1 C 77 % 1031,7 hPa 0,0 l/m 0,0 km/h (0 Bft) S-SO 157 -3,4 C -0,4 C 0,0 km/h (0 Bft)
16.12.2013 03:15 0,3 C 77 % 1031,7 hPa 0,0 l/m 0,0 km/h (0 Bft) S-SO 157 -3,2 C -0,4 C 0,0 km/h (0 Bft)
16.12.2013 03:20 0,1 C 76 % 1031,7 hPa 0,0 l/m 0,0 km/h (0 Bft) S-SO 157 -3,6 C -0,4 C 0,0 km/h (0 Bft)
16.12.2013 03:25 -0,3 C 76 % 1032,1 hPa 0,0 l/m 0,0 km/h (0 Bft) S-SO 157 -4,0 C -0,4 C 0,0 km/h (0 Bft)
16.12.2013 03:30 -0,6 C 76 % 1032,1 hPa 0,0 l/m 0,0 km/h (0 Bft) S-SO 157 -4,3 C -0,4 C 0,0 km/h (0 Bft)
16.12.2013 03:35 -0,7 C 76 % 1032,1 hPa 0,0 l/m 0,0 km/h (0 Bft) S-SO 157 -4,4 C -0,4 C 0,0 km/h (0 Bft)
16.12.2013 03:40 -1,0 C 75 % 1032,1 hPa 0,0 l/m 0,0 km/h (0 Bft) S-SO 157 -4,9 C -0,4 C 0,0 km/h (0 Bft)
16.12.2013 03:45 -1,0 C 75 % 1032,1 hPa 0,0 l/m 0,0 km/h (0 Bft) S-SO 157 -4,9 C -0,4 C 0,0 km/h (0 Bft)
16.12.2013 03:50 -1,2 C 75 % 1032,1 hPa 0,0 l/m 0,0 km/h (0 Bft) S-SO 157 -5,0 C -0,4 C 0,0 km/h (0 Bft)
16.12.2013 03:55 -1,3 C 76 % 1032,1 hPa 0,0 l/m 0,0 km/h (0 Bft) S-SO 157 -5,0 C -0,4 C 0,0 km/h (0 Bft)
16.12.2013 04:00 -1,3 C 76 % 1032,1 hPa 0,0 l/m 0,0 km/h (0 Bft) S-SO 157 -5,0 C -0,4 C 0,0 km/h (0 Bft)
16.12.2013 04:05 -1,4 C 76 % 1031,8 hPa 0,0 l/m 0,0 km/h (0 Bft) S-SO 157 -5,1 C -0,4 C 0,0 km/h (0 Bft)
16.12.2013 04:10 -1,1 C 76 % 1031,8 hPa 0,0 l/m 0,0 km/h (0 Bft) S-SO 157 -4,8 C -0,4 C 0,0 km/h (0 Bft)
16.12.2013 04:15 -0,8 C 77 % 1031,8 hPa 0,0 l/m 0,0 km/h (0 Bft) S-SO 157 -4,3 C -0,4 C 0,0 km/h (0 Bft)
16.12.2013 04:20 -0,8 C 77 % 1031,8 hPa 0,0 l/m 0,0 km/h (0 Bft) S-SO 157 -4,3 C -0,4 C 0,0 km/h (0 Bft)
16.12.2013 04:25 -0,5 C 77 % 1031,8 hPa 0,0 l/m 0,0 km/h (0 Bft) S-SO 157 -4,0 C -0,4 C 0,0 km/h (0 Bft)
16.12.2013 04:30 -0,6 C 77 % 1031,8 hPa 0,0 l/m 0,0 km/h (0 Bft) S-SO 157 -4,1 C -0,4 C 0,0 km/h (0 Bft)
16.12.2013 04:35 -0,6 C 76 % 1031,8 hPa 0,0 l/m 0,0 km/h (0 Bft) S-SO 157 -4,3 C -0,4 C 0,0 km/h (0 Bft)
16.12.2013 04:40 -0,5 C 76 % 1031,8 hPa 0,0 l/m 0,0 km/h (0 Bft) S-SO 157 -4,2 C -0,4 C 0,0 km/h (0 Bft)
16.12.2013 04:45 -0,1 C 76 % 1031,5 hPa 0,0 l/m 0,0 km/h (0 Bft) S-SO 157 -3,8 C -0,4 C 0,0 km/h (0 Bft)
16.12.2013 04:50 0,4 C 75 % 1031,5 hPa 0,0 l/m 0,0 km/h (0 Bft) S-SO 157 -3,5 C -0,4 C 0,0 km/h (0 Bft)
16.12.2013 04:55 0,3 C 75 % 1031,5 hPa 0,0 l/m 0,0 km/h (0 Bft) S-SO 157 -3,6 C -0,4 C 0,0 km/h (0 Bft)
16.12.2013 05:00 0,4 C 74 % 1031,5 hPa 0,0 l/m 0,0 km/h (0 Bft) S-SO 157 -3,7 C -0,4 C 0,0 km/h (0 Bft)
16.12.2013 05:05 0,7 C 74 % 1031,3 hPa 0,0 l/m 0,0 km/h (0 Bft) S-SO 157 -3,4 C -0,4 C 0,0 km/h (0 Bft)
16.12.2013 05:10 0,6 C 74 % 1031,3 hPa 0,0 l/m 0,0 km/h (0 Bft) S-SO 157 -3,5 C -0,4 C 0,0 km/h (0 Bft)
16.12.2013 05:15 0,6 C 73 % 1031,3 hPa 0,0 l/m 0,0 km/h (0 Bft) S-SO 157 -3,7 C -0,4 C 0,0 km/h (0 Bft)
16.12.2013 05:20 1,0 C 72 % 1031,3 hPa 0,0 l/m 0,0 km/h (0 Bft) S-SO 157 -3,5 C -0,4 C 0,0 km/h (0 Bft)
16.12.2013 05:25 0,6 C 72 % 1031,2 hPa 0,0 l/m 0,0 km/h (0 Bft) S-SO 157 -3,9 C -0,4 C 0,0 km/h (0 Bft)
16.12.2013 05:30 0,6 C 72 % 1031,2 hPa 0,0 l/m 0,0 km/h (0 Bft) S-SO 157 -3,9 C -0,4 C 0,0 km/h (0 Bft)
16.12.2013 05:35 0,4 C 72 % 1031,2 hPa 0,0 l/m 0,0 km/h (0 Bft) S-SO 157 -4,0 C -0,4 C 0,0 km/h (0 Bft)
16.12.2013 05:40 0,7 C 73 % 1031,2 hPa 0,0 l/m 0,0 km/h (0 Bft) S-SO 157 -3,6 C -0,4 C 0,0 km/h (0 Bft)
16.12.2013 05:45 0,8 C 72 % 1031,1 hPa 0,0 l/m 0,0 km/h (0 Bft) S-SO 157 -3,7 C -0,4 C 0,0 km/h (0 Bft)
16.12.2013 05:50 1,4 C 69 % 1031,1 hPa 0,0 l/m 0,0 km/h (0 Bft) S-SO 157 -3,7 C -0,4 C 0,0 km/h (0 Bft)
16.12.2013 05:55 1,2 C 69 % 1031,1 hPa 0,0 l/m 0,0 km/h (0 Bft) S-SO 157 -3,8 C -0,4 C 0,0 km/h (0 Bft)
16.12.2013 06:00 1,1 C 69 % 1031,1 hPa 0,0 l/m 0,0 km/h (0 Bft) S-SO 157 -3,9 C -0,4 C 0,0 km/h (0 Bft)
16.12.2013 06:05 0,8 C 70 % 1031,1 hPa 0,0 l/m 0,0 km/h (0 Bft) S-SO 157 -4,0 C -0,4 C 0,0 km/h (0 Bft)
16.12.2013 06:10 1,3 C 69 % 1031,1 hPa 0,0 l/m 0,0 km/h (0 Bft) S-SO 157 -3,7 C -0,4 C 0,0 km/h (0 Bft)
16.12.2013 06:15 1,2 C 68 % 1031,1 hPa 0,0 l/m 0,0 km/h (0 Bft) S-SO 157 -4,0 C -0,4 C 0,0 km/h (0 Bft)
16.12.2013 06:20 1,3 C 68 % 1031,1 hPa 0,0 l/m 0,0 km/h (0 Bft) S-SO 157 -3,9 C -0,4 C 0,0 km/h (0 Bft)
16.12.2013 06:25 1,3 C 68 % 1031,0 hPa 0,0 l/m 0,0 km/h (0 Bft) S-SO 157 -3,9 C -0,4 C 0,0 km/h (0 Bft)
16.12.2013 06:30 1,7 C 66 % 1031,0 hPa 0,0 l/m 0,0 km/h (0 Bft) S-SO 157 -4,0 C -0,4 C 0,0 km/h (0 Bft)
16.12.2013 06:35 1,5 C 64 % 1031,0 hPa 0,0 l/m 0,0 km/h (0 Bft) S-SO 157 -4,6 C -0,4 C 0,0 km/h (0 Bft)
16.12.2013 06:40 1,3 C 64 % 1031,0 hPa 0,0 l/m 0,0 km/h (0 Bft) S-SO 157 -4,7 C -0,4 C 0,0 km/h (0 Bft)
16.12.2013 06:45 0,8 C 63 % 1031,1 hPa 0,0 l/m 0,0 km/h (0 Bft) S-SO 157 -5,4 C -0,4 C 0,0 km/h (0 Bft)
16.12.2013 06:50 0,4 C 65 % 1031,1 hPa 0,0 l/m 0,0 km/h (0 Bft) S-SO 157 -5,4 C -0,4 C 0,0 km/h (0 Bft)
16.12.2013 06:55 0,7 C 66 % 1031,1 hPa 0,0 l/m 0,0 km/h (0 Bft) S-SO 157 -4,9 C -0,4 C 0,0 km/h (0 Bft)
16.12.2013 07:00 0,6 C 66 % 1031,1 hPa 0,0 l/m 0,0 km/h (0 Bft) S-SO 157 -5,0 C -0,4 C 0,0 km/h (0 Bft)
16.12.2013 07:03 1,1 C 67 % 1031,1 hPa 0,0 l/m 0,0 km/h (0 Bft) S-SO 157 -4,3 C -0,4 C 0,0 km/h (0 Bft)
16.12.2013 07:05 1,1 C 67 % 1031,1 hPa 0,0 l/m 0,0 km/h (0 Bft) S-SO 157 -4,3 C -0,4 C 0,0 km/h (0 Bft)
16.12.2013 07:10 1,4 C 66 % 1031,1 hPa 0,0 l/m 0,0 km/h (0 Bft) S-SO 157 -4,2 C -0,4 C 0,0 km/h (0 Bft)
16.12.2013 07:15 1,2 C 66 % 1031,1 hPa 0,0 l/m 0,0 km/h (0 Bft) S-SO 157 -4,4 C -0,4 C 0,0 km/h (0 Bft)
16.12.2013 07:20 1,4 C 66 % 1031,1 hPa 0,0 l/m 0,0 km/h (0 Bft) S-SO 157 -4,2 C -0,4 C 0,0 km/h (0 Bft)
16.12.2013 07:25 0,9 C 66 % 1031,2 hPa 0,0 l/m 0,0 km/h (0 Bft) S-SO 157 -4,7 C -0,4 C 0,0 km/h (0 Bft)
16.12.2013 07:30 0,4 C 65 % 1031,2 hPa 0,0 l/m 0,0 km/h (0 Bft) S-SO 157 -5,4 C -0,4 C 0,0 km/h (0 Bft)
16.12.2013 07:35 0,4 C 65 % 1031,2 hPa 0,0 l/m 0,0 km/h (0 Bft) S-SO 157 -5,4 C -0,4 C 0,0 km/h (0 Bft)
16.12.2013 07:40 0,4 C 65 % 1031,2 hPa 0,0 l/m 0,0 km/h (0 Bft) S-SO 157 -5,4 C -0,4 C 0,0 km/h (0 Bft)
16.12.2013 07:45 0,3 C 65 % 1031,1 hPa 0,0 l/m 0,0 km/h (0 Bft) S-SO 157 -5,5 C -0,4 C 0,0 km/h (0 Bft)
16.12.2013 07:50 0,1 C 66 % 1031,1 hPa 0,0 l/m 0,0 km/h (0 Bft) S-SO 157 -5,5 C -0,4 C 0,0 km/h (0 Bft)
16.12.2013 07:55 0,3 C 67 % 1031,1 hPa 0,0 l/m 0,0 km/h (0 Bft) S-SO 157 -5,1 C -0,4 C 0,0 km/h (0 Bft)
16.12.2013 08:00 0,8 C 68 % 1031,1 hPa 0,0 l/m 0,0 km/h (0 Bft) S-SO 157 -4,4 C -0,4 C 0,0 km/h (0 Bft)
16.12.2013 08:05 0,9 C 67 % 1031,2 hPa 0,0 l/m 0,0 km/h (0 Bft) S-SO 157 -4,5 C -0,4 C 0,0 km/h (0 Bft)
16.12.2013 08:10 0,6 C 67 % 1031,2 hPa 0,0 l/m 0,0 km/h (0 Bft) S-SO 157 -4,8 C -0,4 C 0,0 km/h (0 Bft)
16.12.2013 08:15 0,8 C 66 % 1031,2 hPa 0,0 l/m 0,0 km/h (0 Bft) S-SO 157 -4,8 C -0,4 C 0,0 km/h (0 Bft)
16.12.2013 08:20 0,2 C 66 % 1031,2 hPa 0,0 l/m 0,0 km/h (0 Bft) S-SO 157 -5,4 C -0,4 C 0,0 km/h (0 Bft)
16.12.2013 08:25 0,4 C 67 % 1031,2 hPa 0,0 l/m 0,0 km/h (0 Bft) S-SO 157 -5,0 C -0,4 C 0,0 km/h (0 Bft)
16.12.2013 08:30 0,8 C 67 % 1031,2 hPa 0,0 l/m 0,0 km/h (0 Bft) S-SO 157 -4,6 C -0,4 C 0,0 km/h (0 Bft)
16.12.2013 08:35 0,5 C 67 % 1031,2 hPa 0,0 l/m 0,0 km/h (0 Bft) S-SO 157 -4,9 C -0,4 C 0,0 km/h (0 Bft)
16.12.2013 08:40 0,9 C 67 % 1031,2 hPa 0,0 l/m 0,0 km/h (0 Bft) S-SO 157 -4,5 C -0,4 C 0,0 km/h (0 Bft)
16.12.2013 08:45 1,0 C 66 % 1031,3 hPa 0,0 l/m 0,0 km/h (0 Bft) S-SO 157 -4,6 C -0,4 C 0,0 km/h (0 Bft)
16.12.2013 08:50 1,1 C 66 % 1031,3 hPa 0,0 l/m 0,0 km/h (0 Bft) S-SO 157 -4,5 C -0,4 C 0,0 km/h (0 Bft)
16.12.2013 08:55 1,1 C 66 % 1031,3 hPa 0,0 l/m 0,0 km/h (0 Bft) S-SO 157 -4,5 C -0,4 C 0,0 km/h (0 Bft)
16.12.2013 09:00 1,0 C 66 % 1031,3 hPa 0,0 l/m 0,0 km/h (0 Bft) S-SO 157 -4,6 C -0,4 C 0,0 km/h (0 Bft)
16.12.2013 09:05 1,0 C 66 % 1031,4 hPa 0,0 l/m 0,0 km/h (0 Bft) S-SO 157 -4,6 C -0,4 C 0,0 km/h (0 Bft)
16.12.2013 09:10 1,3 C 66 % 1031,4 hPa 0,0 l/m 0,0 km/h (0 Bft) S-SO 157 -4,3 C -0,4 C 0,0 km/h (0 Bft)
16.12.2013 09:15 1,3 C 66 % 1031,4 hPa 0,0 l/m 0,0 km/h (0 Bft) S-SO 157 -4,3 C -0,4 C 0,0 km/h (0 Bft)
16.12.2013 09:20 1,2 C 66 % 1031,4 hPa 0,0 l/m 0,0 km/h (0 Bft) S-SO 157 -4,4 C -0,4 C 0,0 km/h (0 Bft)
16.12.2013 09:25 1,6 C 66 % 1031,4 hPa 0,0 l/m 0,0 km/h (0 Bft) S-SO 157 -4,1 C -0,4 C 0,0 km/h (0 Bft)
16.12.2013 09:30 1,6 C 65 % 1031,4 hPa 0,0 l/m 0,0 km/h (0 Bft) S-SO 157 -4,3 C -0,4 C 0,0 km/h (0 Bft)
16.12.2013 09:35 2,0 C 64 % 1031,4 hPa 0,0 l/m 0,0 km/h (0 Bft) S-SO 157 -4,1 C -0,4 C 0,0 km/h (0 Bft)
16.12.2013 09:40 2,1 C 63 % 1031,4 hPa 0,0 l/m 0,0 km/h (0 Bft) S-SO 157 -4,2 C -0,4 C 0,0 km/h (0 Bft)
16.12.2013 09:45 2,1 C 63 % 1031,3 hPa 0,0 l/m 0,0 km/h (0 Bft) S-SO 157 -4,2 C -0,4 C 0,0 km/h (0 Bft)
16.12.2013 09:50 2,3 C 63 % 1031,3 hPa 0,0 l/m 0,0 km/h (0 Bft) S-SO 157 -4,0 C -0,4 C 0,0 km/h (0 Bft)
16.12.2013 09:55 2,0 C 62 % 1031,3 hPa 0,0 l/m 0,0 km/h (0 Bft) S-SO 157 -4,5 C -0,4 C 0,0 km/h (0 Bft)
16.12.2013 10:00 2,1 C 62 % 1031,3 hPa 0,0 l/m 0,0 km/h (0 Bft) S-SO 157 -4,4 C -0,4 C 0,0 km/h (0 Bft)
16.12.2013 10:05 2,3 C 63 % 1031,3 hPa 0,0 l/m 0,0 km/h (0 Bft) S-SO 157 -4,0 C -0,4 C 0,0 km/h (0 Bft)
16.12.2013 10:10 2,6 C 62 % 1031,3 hPa 0,0 l/m 0,0 km/h (0 Bft) S-SO 157 -3,9 C -0,4 C 0,0 km/h (0 Bft)
16.12.2013 10:15 2,8 C 61 % 1031,3 hPa 0,0 l/m 0,0 km/h (0 Bft) S-SO 157 -4,0 C -0,4 C 0,0 km/h (0 Bft)
16.12.2013 10:20 2,9 C 61 % 1031,3 hPa 0,0 l/m 0,0 km/h (0 Bft) S-SO 157 -3,9 C -0,4 C 0,0 km/h (0 Bft)
16.12.2013 10:25 2,9 C 61 % 1031,4 hPa 0,0 l/m 0,0 km/h (0 Bft) S-SO 157 -3,9 C -0,4 C 0,0 km/h (0 Bft)
16.12.2013 10:30 2,8 C 61 % 1031,4 hPa 0,0 l/m 0,0 km/h (0 Bft) S-SO 157 -4,0 C -0,4 C 0,0 km/h (0 Bft)
16.12.2013 10:35 3,3 C 59 % 1031,4 hPa 0,0 l/m 0,0 km/h (0 Bft) S-SO 157 -3,9 C -0,4 C 0,0 km/h (0 Bft)
16.12.2013 10:40 3,1 C 59 % 1031,4 hPa 0,0 l/m 0,0 km/h (0 Bft) S-SO 157 -4,1 C -0,4 C 0,0 km/h (0 Bft)
16.12.2013 10:45 3,0 C 59 % 1031,3 hPa 0,0 l/m 0,0 km/h (0 Bft) S-SO 157 -4,2 C -0,4 C 0,0 km/h (0 Bft)
16.12.2013 10:50 3,1 C 59 % 1031,3 hPa 0,0 l/m 0,0 km/h (0 Bft) S-SO 157 -4,1 C -0,4 C 0,0 km/h (0 Bft)
16.12.2013 10:55 3,1 C 59 % 1031,3 hPa 0,0 l/m 0,0 km/h (0 Bft) S-SO 157 -4,1 C -0,4 C 0,0 km/h (0 Bft)
16.12.2013 11:00 3,3 C 59 % 1031,3 hPa 0,0 l/m 0,0 km/h (0 Bft) S-SO 157 -3,9 C -0,4 C 0,0 km/h (0 Bft)
16.12.2013 11:05 3,9 C 58 % 1031,1 hPa 0,0 l/m 0,0 km/h (0 Bft) S-SO 157 -3,6 C -0,4 C 0,0 km/h (0 Bft)
16.12.2013 11:10 3,9 C 58 % 1031,1 hPa 0,0 l/m 0,0 km/h (0 Bft) S-SO 157 -3,6 C -0,4 C 0,0 km/h (0 Bft)
16.12.2013 11:15 4,2 C 57 % 1031,1 hPa 0,0 l/m 0,0 km/h (0 Bft) S-SO 157 -3,5 C -0,4 C 0,0 km/h (0 Bft)
16.12.2013 11:20 4,2 C 57 % 1031,1 hPa 0,0 l/m 0,0 km/h (0 Bft) S-SO 157 -3,5 C -0,4 C 0,0 km/h (0 Bft)
16.12.2013 11:25 5,0 C 56 % 1031,1 hPa 0,0 l/m 0,0 km/h (0 Bft) S-SO 157 -3,0 C -0,4 C 0,0 km/h (0 Bft)
16.12.2013 11:30 5,0 C 55 % 1031,1 hPa 0,0 l/m 0,0 km/h (0 Bft) S-SO 157 -3,3 C -0,4 C 0,0 km/h (0 Bft)
16.12.2013 11:35 6,1 C 51 % 1031,1 hPa 0,0 l/m 1,0 km/h (0 Bft) N-NO 22 -3,3 C 6,2 C 0,0 km/h (0 Bft)
16.12.2013 11:40 6,1 C 50 % 1031,1 hPa 0,0 l/m 1,0 km/h (0 Bft) N-NW 337 -3,5 C 6,4 C 0,0 km/h (0 Bft)
16.12.2013 11:45 5,8 C 51 % 1030,9 hPa 0,0 l/m 1,0 km/h (0 Bft) W 270 -3,5 C 6,8 C 1,9 km/h (1 Bft)
16.12.2013 11:50 6,2 C 49 % 1030,9 hPa 0,0 l/m 1,3 km/h (1 Bft) NO 45 -3,7 C 6,8 C 3,5 km/h (1 Bft)
16.12.2013 11:55 6,5 C 49 % 1030,9 hPa 0,0 l/m 1,6 km/h (1 Bft) O-NO 67 -3,4 C 6,9 C 6,3 km/h (2 Bft)
16.12.2013 11:59 6,6 C 47 % 1030,9 hPa 0,0 l/m 1,1 km/h (1 Bft) N-NW 337 -3,9 C 6,9 C 2,1 km/h (1 Bft)
16.12.2013 12:00 6,6 C 47 % 1030,9 hPa 0,0 l/m 1,1 km/h (1 Bft) N-NW 337 -3,9 C 6,9 C 2,1 km/h (1 Bft)
16.12.2013 12:05 6,3 C 48 % 1030,9 hPa 0,0 l/m 1,1 km/h (1 Bft) NO 45 -3,9 C 6,9 C 3,5 km/h (1 Bft)
16.12.2013 12:10 6,2 C 48 % 1030,9 hPa 0,0 l/m 1,4 km/h (1 Bft) NO 45 -4,0 C 7,0 C 2,9 km/h (1 Bft)
16.12.2013 12:15 6,2 C 50 % 1030,9 hPa 0,0 l/m 1,3 km/h (1 Bft) O 90 -3,4 C 7,1 C 0,0 km/h (0 Bft)
16.12.2013 12:20 7,1 C 46 % 1030,9 hPa 0,0 l/m 0,8 km/h (0 Bft) NO 45 -3,7 C 7,1 C 2,9 km/h (1 Bft)
16.12.2013 12:25 6,9 C 47 % 1030,6 hPa 0,0 l/m 1,3 km/h (1 Bft) N-NO 22 -3,6 C 7,5 C 0,0 km/h (0 Bft)
16.12.2013 12:30 7,0 C 47 % 1030,6 hPa 0,0 l/m 1,4 km/h (1 Bft) O-NO 67 -3,5 C 7,4 C 3,2 km/h (1 Bft)
16.12.2013 12:35 6,9 C 46 % 1030,6 hPa 0,0 l/m 1,1 km/h (1 Bft) W 270 -3,9 C 7,4 C 2,9 km/h (1 Bft)
16.12.2013 12:40 6,5 C 47 % 1030,6 hPa 0,0 l/m 1,3 km/h (1 Bft) N-NW 337 -4,0 C 7,5 C 2,6 km/h (1 Bft)
16.12.2013 12:45 6,5 C 48 % 1030,6 hPa 0,0 l/m 0,6 km/h (0 Bft) N 360 -3,7 C 7,4 C 0,0 km/h (0 Bft)
16.12.2013 12:50 6,9 C 47 % 1030,6 hPa 0,0 l/m 0,6 km/h (0 Bft) N 360 -3,6 C 7,3 C 1,8 km/h (1 Bft)
16.12.2013 12:55 6,7 C 47 % 1030,6 hPa 0,0 l/m 1,6 km/h (1 Bft) NO 45 -3,8 C 7,4 C 2,3 km/h (1 Bft)
16.12.2013 13:00 6,8 C 46 % 1030,6 hPa 0,0 l/m 1,6 km/h (1 Bft) O-NO 67 -4,0 C 7,4 C 1,8 km/h (1 Bft)
16.12.2013 13:05 6,7 C 47 % 1030,2 hPa 0,0 l/m 0,6 km/h (0 Bft) NO 45 -3,8 C 7,4 C 2,4 km/h (1 Bft)
16.12.2013 13:10 7,3 C 46 % 1030,2 hPa 0,0 l/m 1,3 km/h (1 Bft) N-NO 22 -3,5 C 7,5 C 2,9 km/h (1 Bft)
16.12.2013 13:15 7,9 C 43 % 1030,2 hPa 0,0 l/m 2,1 km/h (1 Bft) NO 45 -3,9 C 7,9 C 1,8 km/h (1 Bft)
16.12.2013 13:20 6,8 C 45 % 1030,2 hPa 0,0 l/m 1,6 km/h (1 Bft) N-NO 22 -4,3 C 8,0 C 0,0 km/h (0 Bft)
16.12.2013 13:25 7,7 C 44 % 1030,4 hPa 0,0 l/m 1,0 km/h (0 Bft) N-NO 22 -3,8 C 8,0 C 2,1 km/h (1 Bft)
16.12.2013 13:30 8,0 C 43 % 1030,4 hPa 0,0 l/m 0,8 km/h (0 Bft) N-NO 22 -3,8 C 8,1 C 0,0 km/h (0 Bft)
16.12.2013 13:35 7,4 C 43 % 1030,4 hPa 0,0 l/m 0,3 km/h (0 Bft) O 90 -4,3 C 8,1 C 0,0 km/h (0 Bft)
16.12.2013 13:40 7,4 C 43 % 1030,4 hPa 0,0 l/m 0,2 km/h (0 Bft) O 90 -4,3 C 8,1 C 0,0 km/h (0 Bft)
16.12.2013 13:45 7,0 C 44 % 1030,2 hPa 0,0 l/m 0,0 km/h (0 Bft) N-NO 22 -4,4 C 9,3 C 0,0 km/h (0 Bft)
16.12.2013 13:50 7,3 C 44 % 1030,2 hPa 0,0 l/m 0,2 km/h (0 Bft) NO 45 -4,1 C 11,2 C 0,0 km/h (0 Bft)
16.12.2013 13:55 8,1 C 43 % 1030,2 hPa 0,0 l/m 0,5 km/h (0 Bft) O-NO 67 -3,7 C 13,7 C 3,5 km/h (1 Bft)
16.12.2013 14:00 8,0 C 43 % 1030,2 hPa 0,0 l/m 1,0 km/h (0 Bft) O-NO 67 -3,8 C 14,6 C 1,6 km/h (1 Bft)
16.12.2013 14:05 9,5 C 42 % 1030,5 hPa 0,0 l/m 1,9 km/h (1 Bft) O-NO 67 -2,8 C 15,6 C 4,8 km/h (1 Bft)
16.12.2013 14:10 9,7 C 40 % 1030,5 hPa 0,0 l/m 2,3 km/h (1 Bft) O 90 -3,2 C 15,5 C 2,3 km/h (1 Bft)
16.12.2013 14:15 7,5 C 41 % 1030,5 hPa 0,0 l/m 2,7 km/h (1 Bft) NO 45 -4,9 C 15,6 C 0,0 km/h (0 Bft)
16.12.2013 14:20 7,9 C 42 % 1030,5 hPa 0,0 l/m 2,1 km/h (1 Bft) O-NO 67 -4,2 C 14,9 C 4,2 km/h (1 Bft)
16.12.2013 14:25 8,5 C 40 % 1030,6 hPa 0,0 l/m 1,8 km/h (1 Bft) NO 45 -4,3 C 13,0 C 2,6 km/h (1 Bft)
16.12.2013 14:30 8,6 C 40 % 1030,6 hPa 0,0 l/m 1,9 km/h (1 Bft) O 90 -4,2 C 12,0 C 0,0 km/h (0 Bft)
16.12.2013 14:35 6,9 C 42 % 1030,6 hPa 0,0 l/m 0,8 km/h (0 Bft) NO 45 -5,1 C 11,3 C 0,0 km/h (0 Bft)
16.12.2013 14:40 6,5 C 43 % 1030,6 hPa 0,0 l/m 0,2 km/h (0 Bft) O-NO 67 -5,2 C 11,8 C 0,0 km/h (0 Bft)
16.12.2013 14:45 6,4 C 45 % 1030,4 hPa 0,0 l/m 0,3 km/h (0 Bft) NO 45 -4,6 C 13,4 C 0,0 km/h (0 Bft)
16.12.2013 14:50 6,1 C 45 % 1030,4 hPa 0,0 l/m 0,3 km/h (0 Bft) N-NO 22 -4,9 C 13,7 C 0,0 km/h (0 Bft)
16.12.2013 14:55 5,6 C 47 % 1030,4 hPa 0,0 l/m 0,2 km/h (0 Bft) N-NO 22 -4,8 C 13,0 C 0,0 km/h (0 Bft)
16.12.2013 15:00 5,7 C 48 % 1030,4 hPa 0,0 l/m 0,2 km/h (0 Bft) NO 45 -4,4 C 12,5 C 2,3 km/h (1 Bft)
16.12.2013 15:05 5,0 C 48 % 1030,1 hPa 0,0 l/m 0,2 km/h (0 Bft) NO 45 -5,1 C 11,3 C 0,0 km/h (0 Bft)
16.12.2013 15:10 5,2 C 49 % 1030,1 hPa 0,0 l/m 0,0 km/h (0 Bft) NO 45 -4,6 C 10,0 C 0,0 km/h (0 Bft)
16.12.2013 15:15 4,8 C 50 % 1030,1 hPa 0,0 l/m 0,0 km/h (0 Bft) N-NO 22 -4,7 C 8,3 C 0,0 km/h (0 Bft)
16.12.2013 15:20 4,6 C 50 % 1030,1 hPa 0,0 l/m 0,0 km/h (0 Bft) O 90 -4,9 C 7,4 C 0,0 km/h (0 Bft)
16.12.2013 15:25 4,2 C 51 % 1030,0 hPa 0,0 l/m 0,0 km/h (0 Bft) NO 45 -5,0 C 6,4 C 0,0 km/h (0 Bft)
16.12.2013 15:30 3,9 C 52 % 1030,0 hPa 0,0 l/m 0,0 km/h (0 Bft) NO 45 -5,0 C 6,0 C 0,0 km/h (0 Bft)
16.12.2013 15:35 3,9 C 53 % 1030,0 hPa 0,0 l/m 0,2 km/h (0 Bft) N-NO 22 -4,8 C 5,7 C 0,0 km/h (0 Bft)
16.12.2013 15:40 3,8 C 53 % 1030,0 hPa 0,0 l/m 0,2 km/h (0 Bft) NW 315 -4,9 C 5,4 C 0,0 km/h (0 Bft)
16.12.2013 15:45 3,8 C 54 % 1029,9 hPa 0,0 l/m 0,5 km/h (0 Bft) N 360 -4,6 C 5,2 C 0,0 km/h (0 Bft)
16.12.2013 15:50 4,0 C 54 % 1029,9 hPa 0,0 l/m 0,5 km/h (0 Bft) N-NW 337 -4,4 C 5,1 C 0,0 km/h (0 Bft)
16.12.2013 15:55 4,8 C 54 % 1029,9 hPa 0,0 l/m 0,0 km/h (0 Bft) N 360 -3,7 C 4,8 C 0,0 km/h (0 Bft)
16.12.2013 16:00 3,9 C 54 % 1029,9 hPa 0,0 l/m 0,0 km/h (0 Bft) NW 315 -4,5 C 4,7 C 0,0 km/h (0 Bft)
16.12.2013 16:05 3,5 C 55 % 1029,8 hPa 0,0 l/m 0,0 km/h (0 Bft) N 360 -4,7 C 4,4 C 0,0 km/h (0 Bft)
16.12.2013 16:10 2,9 C 56 % 1029,8 hPa 0,0 l/m 0,0 km/h (0 Bft) W-NW 292 -5,0 C 4,0 C 0,0 km/h (0 Bft)
16.12.2013 16:15 2,3 C 56 % 1029,8 hPa 0,0 l/m 0,0 km/h (0 Bft) W-NW 292 -5,6 C 3,5 C 0,0 km/h (0 Bft)
16.12.2013 16:20 2,2 C 57 % 1029,8 hPa 0,0 l/m 0,0 km/h (0 Bft) NW 315 -5,4 C 3,2 C 0,0 km/h (0 Bft)
16.12.2013 16:25 2,4 C 59 % 1029,9 hPa 0,0 l/m 0,2 km/h (0 Bft) N 360 -4,8 C 2,6 C 0,0 km/h (0 Bft)
16.12.2013 16:30 1,8 C 59 % 1029,9 hPa 0,0 l/m 0,3 km/h (0 Bft) N-NW 337 -5,3 C 2,3 C 0,0 km/h (0 Bft)
16.12.2013 16:35 1,3 C 59 % 1029,9 hPa 0,0 l/m 0,3 km/h (0 Bft) N-NO 22 -5,8 C 1,8 C 0,0 km/h (0 Bft)
16.12.2013 16:40 1,1 C 59 % 1029,9 hPa 0,0 l/m 0,2 km/h (0 Bft) NW 315 -6,0 C 1,7 C 0,0 km/h (0 Bft)
16.12.2013 16:45 0,4 C 61 % 1029,9 hPa 0,0 l/m 0,2 km/h (0 Bft) NO 45 -6,2 C 1,0 C 0,0 km/h (0 Bft)
16.12.2013 16:50 0,3 C 62 % 1029,9 hPa 0,0 l/m 0,0 km/h (0 Bft) W-NW 292 -6,1 C 0,8 C 0,0 km/h (0 Bft)
16.12.2013 16:55 0,1 C 63 % 1029,9 hPa 0,0 l/m 0,0 km/h (0 Bft) W-NW 292 -6,1 C 0,4 C 0,0 km/h (0 Bft)
16.12.2013 17:00 -0,1 C 65 % 1029,9 hPa 0,0 l/m 0,2 km/h (0 Bft) N-NW 337 -5,9 C 0,1 C 0,0 km/h (0 Bft)
16.12.2013 17:05 -0,6 C 65 % 1029,6 hPa 0,0 l/m 0,2 km/h (0 Bft) W-NW 292 -6,3 C -0,2 C 0,0 km/h (0 Bft)
16.12.2013 17:10 -0,6 C 66 % 1029,6 hPa 0,0 l/m 0,0 km/h (0 Bft) N 360 -6,1 C -0,3 C 0,0 km/h (0 Bft)
16.12.2013 17:15 -0,8 C 67 % 1029,6 hPa 0,0 l/m 0,2 km/h (0 Bft) N 360 -6,1 C -0,6 C 0,0 km/h (0 Bft)
16.12.2013 17:20 -1,0 C 67 % 1029,6 hPa 0,0 l/m 0,2 km/h (0 Bft) W-NW 292 -6,3 C -0,7 C 0,0 km/h (0 Bft)
16.12.2013 17:25 -1,0 C 69 % 1029,6 hPa 0,0 l/m 0,3 km/h (0 Bft) N-NO 22 -5,9 C -1,0 C 0,0 km/h (0 Bft)
16.12.2013 17:30 -0,8 C 70 % 1029,6 hPa 0,0 l/m 0,3 km/h (0 Bft) N-NO 22 -5,6 C -1,0 C 0,0 km/h (0 Bft)
16.12.2013 17:35 -1,5 C 69 % 1029,6 hPa 0,0 l/m 0,3 km/h (0 Bft) N-NW 337 -6,4 C -1,2 C 0,0 km/h (0 Bft)
16.12.2013 17:36 -1,3 C 71 % 1029,6 hPa 0,0 l/m 0,5 km/h (0 Bft) N-NW 337 -5,9 C -1,2 C 2,9 km/h (1 Bft)
16.12.2013 17:40 -0,4 C 74 % 1029,5 hPa 0,0 l/m 2,1 km/h (1 Bft) N 360 -4,5 C -1,1 C 2,3 km/h (1 Bft)
16.12.2013 17:45 -0,5 C 73 % 1029,5 hPa 0,0 l/m 1,8 km/h (1 Bft) N-NW 337 -4,7 C -1,1 C 0,0 km/h (0 Bft)
16.12.2013 17:50 -0,8 C 72 % 1029,5 hPa 0,0 l/m 0,3 km/h (0 Bft) N 360 -5,2 C -1,1 C 0,0 km/h (0 Bft)
16.12.2013 17:55 -0,2 C 73 % 1029,5 hPa 0,0 l/m 0,5 km/h (0 Bft) NO 45 -4,4 C -1,1 C 3,4 km/h (1 Bft)
16.12.2013 18:00 -0,9 C 71 % 1029,6 hPa 0,0 l/m 0,8 km/h (0 Bft) N-NO 22 -5,5 C -1,0 C 0,0 km/h (0 Bft)
16.12.2013 18:05 -1,0 C 71 % 1029,6 hPa 0,0 l/m 0,3 km/h (0 Bft) N-NO 22 -5,6 C -1,0 C 0,0 km/h (0 Bft)
16.12.2013 18:10 -1,7 C 70 % 1029,6 hPa 0,0 l/m 0,2 km/h (0 Bft) NO 45 -6,4 C -1,2 C 0,0 km/h (0 Bft)
16.12.2013 18:15 -1,7 C 70 % 1029,6 hPa 0,0 l/m 0,2 km/h (0 Bft) NO 45 -6,4 C -1,4 C 0,0 km/h (0 Bft)
16.12.2013 18:20 -1,8 C 72 % 1029,7 hPa 0,0 l/m 0,3 km/h (0 Bft) N-NO 22 -6,2 C -1,7 C 0,0 km/h (0 Bft)
16.12.2013 18:25 -2,1 C 72 % 1029,7 hPa 0,0 l/m 0,3 km/h (0 Bft) N-NW 337 -6,5 C -1,8 C 0,0 km/h (0 Bft)
16.12.2013 18:30 -1,9 C 72 % 1029,7 hPa 0,0 l/m 0,0 km/h (0 Bft) N-NO 22 -6,3 C -1,8 C 0,0 km/h (0 Bft)
16.12.2013 18:35 -1,8 C 72 % 1029,7 hPa 0,0 l/m 0,0 km/h (0 Bft) N-NO 22 -6,2 C -2,0 C 0,0 km/h (0 Bft)
16.12.2013 18:40 -2,1 C 72 % 1029,7 hPa 0,0 l/m 0,0 km/h (0 Bft) N-NW 337 -6,5 C -2,1 C 0,0 km/h (0 Bft)
16.12.2013 18:45 -2,3 C 72 % 1029,7 hPa 0,0 l/m 0,0 km/h (0 Bft) N-NW 337 -6,6 C -2,3 C 0,0 km/h (0 Bft)
16.12.2013 18:50 -2,0 C 75 % 1029,7 hPa 0,0 l/m 0,6 km/h (0 Bft) N 360 -5,8 C -2,6 C 3,4 km/h (1 Bft)
16.12.2013 18:55 -2,3 C 75 % 1029,7 hPa 0,0 l/m 1,3 km/h (1 Bft) N-NO 22 -6,1 C -2,3 C 2,4 km/h (1 Bft)
16.12.2013 19:00 -2,2 C 74 % 1029,8 hPa 0,0 l/m 1,0 km/h (0 Bft) O-NO 67 -6,2 C -2,2 C 0,0 km/h (0 Bft)
16.12.2013 19:05 -1,3 C 75 % 1029,8 hPa 0,0 l/m 1,0 km/h (0 Bft) SO 135 -5,1 C -1,9 C 0,0 km/h (0 Bft)
16.12.2013 19:10 -2,0 C 73 % 1029,8 hPa 0,0 l/m 0,8 km/h (0 Bft) O-SO 112 -6,2 C -1,7 C 0,0 km/h (0 Bft)
16.12.2013 19:15 -2,4 C 73 % 1029,8 hPa 0,0 l/m 0,0 km/h (0 Bft) O-SO 112 -6,6 C -2,0 C 0,0 km/h (0 Bft)
16.12.2013 19:20 -1,9 C 73 % 1029,8 hPa 0,0 l/m 0,0 km/h (0 Bft) O-SO 112 -6,1 C -2,0 C 0,0 km/h (0 Bft)
16.12.2013 19:25 -1,9 C 73 % 1029,8 hPa 0,0 l/m 0,2 km/h (0 Bft) O-SO 112 -6,1 C -2,0 C 0,0 km/h (0 Bft)
16.12.2013 19:30 -2,1 C 73 % 1029,8 hPa 0,0 l/m 0,3 km/h (0 Bft) O-SO 112 -6,3 C -1,9 C 0,0 km/h (0 Bft)
16.12.2013 19:35 -2,3 C 73 % 1029,8 hPa 0,0 l/m 0,3 km/h (0 Bft) NO 45 -6,5 C -1,9 C 2,3 km/h (1 Bft)
16.12.2013 19:40 -2,5 C 74 % 1029,6 hPa 0,0 l/m 0,5 km/h (0 Bft) NO 45 -6,5 C -1,7 C 0,0 km/h (0 Bft)
16.12.2013 19:45 -2,6 C 73 % 1029,6 hPa 0,0 l/m 0,5 km/h (0 Bft) NO 45 -6,8 C -1,8 C 0,0 km/h (0 Bft)
16.12.2013 19:50 -1,9 C 74 % 1029,6 hPa 0,0 l/m 0,3 km/h (0 Bft) NO 45 -5,9 C -2,1 C 2,1 km/h (1 Bft)
16.12.2013 19:55 -1,4 C 73 % 1029,6 hPa 0,0 l/m 0,6 km/h (0 Bft) NO 45 -5,6 C -2,0 C 0,0 km/h (0 Bft)
16.12.2013 20:00 -1,6 C 73 % 1029,6 hPa 0,0 l/m 0,6 km/h (0 Bft) SO 135 -5,8 C -2,0 C 0,0 km/h (0 Bft)
16.12.2013 20:05 -2,4 C 72 % 1029,6 hPa 0,0 l/m 0,2 km/h (0 Bft) SO 135 -6,7 C -2,1 C 0,0 km/h (0 Bft)
16.12.2013 20:10 -2,4 C 72 % 1029,6 hPa 0,0 l/m 0,0 km/h (0 Bft) S-SO 157 -6,7 C -2,1 C 0,0 km/h (0 Bft)
16.12.2013 20:15 -2,4 C 72 % 1029,6 hPa 0,0 l/m 0,0 km/h (0 Bft) S-SO 157 -6,7 C -2,2 C 0,0 km/h (0 Bft)
16.12.2013 20:20 -2,2 C 72 % 1029,5 hPa 0,0 l/m 0,2 km/h (0 Bft) NO 45 -6,5 C -2,3 C 0,0 km/h (0 Bft)
16.12.2013 20:25 -1,7 C 73 % 1029,5 hPa 0,0 l/m 0,2 km/h (0 Bft) O-SO 112 -5,9 C -2,1 C 0,0 km/h (0 Bft)
16.12.2013 20:30 -2,2 C 72 % 1029,5 hPa 0,0 l/m 0,0 km/h (0 Bft) S-SO 157 -6,5 C -2,1 C 0,0 km/h (0 Bft)
16.12.2013 20:35 -2,4 C 72 % 1029,5 hPa 0,0 l/m 0,0 km/h (0 Bft) S-SO 157 -6,7 C -2,2 C 0,0 km/h (0 Bft)
16.12.2013 20:40 -2,6 C 71 % 1029,3 hPa 0,0 l/m 0,0 km/h (0 Bft) O 90 -7,1 C -2,5 C 0,0 km/h (0 Bft)
16.12.2013 20:45 -2,7 C 71 % 1029,3 hPa 0,0 l/m 0,0 km/h (0 Bft) O-SO 112 -7,2 C -2,5 C 0,0 km/h (0 Bft)
16.12.2013 20:50 -2,9 C 71 % 1029,3 hPa 0,0 l/m 0,0 km/h (0 Bft) S-SO 157 -7,4 C -2,7 C 0,0 km/h (0 Bft)
16.12.2013 20:55 -2,9 C 72 % 1029,3 hPa 0,0 l/m 0,0 km/h (0 Bft) S 180 -7,2 C -2,7 C 0,0 km/h (0 Bft)
16.12.2013 21:00 -3,0 C 72 % 1029,0 hPa 0,0 l/m 0,0 km/h (0 Bft) S 180 -7,3 C -2,7 C 0,0 km/h (0 Bft)
16.12.2013 21:05 -3,0 C 72 % 1029,0 hPa 0,0 l/m 0,0 km/h (0 Bft) SO 135 -7,3 C -2,9 C 0,0 km/h (0 Bft)
16.12.2013 21:10 -3,2 C 72 % 1029,0 hPa 0,0 l/m 0,0 km/h (0 Bft) SO 135 -7,5 C -2,9 C 0,0 km/h (0 Bft)
16.12.2013 21:15 -3,3 C 72 % 1029,0 hPa 0,0 l/m 0,0 km/h (0 Bft) SO 135 -7,6 C -3,0 C 0,0 km/h (0 Bft)
16.12.2013 21:20 -2,6 C 73 % 1028,9 hPa 0,0 l/m 0,2 km/h (0 Bft) S 180 -6,8 C -2,8 C 2,9 km/h (1 Bft)
16.12.2013 21:25 -2,6 C 73 % 1028,9 hPa 0,0 l/m 0,3 km/h (0 Bft) O 90 -6,8 C -2,5 C 0,0 km/h (0 Bft)
16.12.2013 21:30 -2,6 C 72 % 1028,9 hPa 0,0 l/m 0,2 km/h (0 Bft) O-SO 112 -6,9 C -2,3 C 0,0 km/h (0 Bft)
16.12.2013 21:35 -2,3 C 72 % 1028,9 hPa 0,0 l/m 0,2 km/h (0 Bft) S 180 -6,6 C -2,1 C 1,6 km/h (1 Bft)
16.12.2013 21:40 -1,8 C 72 % 1028,9 hPa 0,0 l/m 0,2 km/h (0 Bft) O-SO 112 -6,2 C -2,0 C 2,4 km/h (1 Bft)
16.12.2013 21:45 -1,8 C 71 % 1028,9 hPa 0,0 l/m 0,3 km/h (0 Bft) O-SO 112 -6,3 C -2,1 C 2,1 km/h (1 Bft)
16.12.2013 21:50 -1,9 C 70 % 1028,9 hPa 0,0 l/m 0,5 km/h (0 Bft) W-SW 247 -6,6 C -1,9 C 0,0 km/h (0 Bft)
16.12.2013 21:55 -2,1 C 70 % 1028,9 hPa 0,0 l/m 0,6 km/h (0 Bft) S-SW 202 -6,8 C -2,0 C 1,6 km/h (1 Bft)
16.12.2013 22:00 -2,2 C 70 % 1028,6 hPa 0,0 l/m 0,3 km/h (0 Bft) S-SW 202 -6,9 C -2,1 C 0,0 km/h (0 Bft)
16.12.2013 22:05 -2,1 C 70 % 1028,6 hPa 0,0 l/m 0,3 km/h (0 Bft) S 180 -6,8 C -2,1 C 0,0 km/h (0 Bft)
16.12.2013 22:10 -1,9 C 69 % 1028,6 hPa 0,0 l/m 0,2 km/h (0 Bft) S-SW 202 -6,8 C -2,0 C 0,0 km/h (0 Bft)
16.12.2013 22:15 -1,8 C 69 % 1028,6 hPa 0,0 l/m 0,3 km/h (0 Bft) S-SO 157 -6,7 C -2,0 C 0,0 km/h (0 Bft)
16.12.2013 22:20 -1,7 C 69 % 1028,5 hPa 0,0 l/m 0,2 km/h (0 Bft) S-SW 202 -6,6 C -1,9 C 0,0 km/h (0 Bft)
16.12.2013 22:25 -1,6 C 68 % 1028,5 hPa 0,0 l/m 0,0 km/h (0 Bft) S-SW 202 -6,7 C -1,8 C 0,0 km/h (0 Bft)
16.12.2013 22:30 -1,9 C 68 % 1028,5 hPa 0,0 l/m 0,0 km/h (0 Bft) S-SO 157 -7,0 C -1,7 C 0,0 km/h (0 Bft)
16.12.2013 22:35 -2,2 C 68 % 1028,5 hPa 0,0 l/m 0,0 km/h (0 Bft) S-SW 202 -7,3 C -1,8 C 0,0 km/h (0 Bft)
16.12.2013 22:40 -2,1 C 68 % 1028,4 hPa 0,0 l/m 0,0 km/h (0 Bft) S-SO 157 -7,2 C -1,9 C 0,0 km/h (0 Bft)
16.12.2013 22:45 -1,8 C 68 % 1028,4 hPa 0,0 l/m 0,0 km/h (0 Bft) S-SO 157 -6,9 C -2,0 C 0,0 km/h (0 Bft)
16.12.2013 22:50 -0,8 C 67 % 1028,4 hPa 0,0 l/m 1,0 km/h (0 Bft) NO 45 -6,1 C -1,7 C 2,7 km/h (1 Bft)
16.12.2013 22:55 -1,1 C 66 % 1028,4 hPa 0,0 l/m 1,0 km/h (0 Bft) O-NO 67 -6,6 C -1,6 C 0,0 km/h (0 Bft)
16.12.2013 23:00 -1,8 C 66 % 1028,7 hPa 0,0 l/m 0,3 km/h (0 Bft) NO 45 -7,3 C -1,8 C 0,0 km/h (0 Bft)
16.12.2013 23:05 -1,8 C 66 % 1028,7 hPa 0,0 l/m 0,2 km/h (0 Bft) NO 45 -7,3 C -1,7 C 0,0 km/h (0 Bft)
16.12.2013 23:10 -1,8 C 67 % 1028,7 hPa 0,0 l/m 0,3 km/h (0 Bft) N-NO 22 -7,1 C -1,8 C 1,8 km/h (1 Bft)
16.12.2013 23:15 -1,8 C 67 % 1028,7 hPa 0,0 l/m 0,5 km/h (0 Bft) N-NW 337 -7,1 C -1,7 C 0,0 km/h (0 Bft)
16.12.2013 23:20 -0,9 C 68 % 1028,7 hPa 0,0 l/m 1,1 km/h (1 Bft) NO 45 -6,0 C -1,5 C 0,0 km/h (0 Bft)
16.12.2013 23:25 -1,2 C 67 % 1028,7 hPa 0,0 l/m 0,8 km/h (0 Bft) NO 45 -6,5 C -1,4 C 0,0 km/h (0 Bft)
16.12.2013 23:30 -1,7 C 67 % 1028,7 hPa 0,0 l/m 0,2 km/h (0 Bft) NO 45 -7,0 C -1,3 C 0,0 km/h (0 Bft)
16.12.2013 23:35 -0,3 C 66 % 1028,7 hPa 0,0 l/m 1,1 km/h (1 Bft) O-SO 112 -5,9 C -1,3 C 2,6 km/h (1 Bft)
16.12.2013 23:40 -1,7 C 65 % 1028,7 hPa 0,0 l/m 1,1 km/h (1 Bft) O 90 -7,4 C -1,4 C 0,0 km/h (0 Bft)
16.12.2013 23:45 -1,9 C 66 % 1028,7 hPa 0,0 l/m 1,1 km/h (1 Bft) S-SW 202 -7,4 C -1,7 C 4,7 km/h (1 Bft)
16.12.2013 23:50 1,1 C 64 % 1028,7 hPa 0,0 l/m 5,0 km/h (1 Bft) O-SO 112 -4,9 C -2,4 C 15,1 km/h (3 Bft)
16.12.2013 23:55 1,6 C 60 % 1028,7 hPa 0,0 l/m 6,8 km/h (2 Bft) NO 45 -5,3 C -1,7 C 4,8 km/h (1 Bft)
_ Min-Zeit 21:15 14:30 22:55 - 22:45 - - 21:15 21:15 23:40
Minimum _ -3,3 C 40 % 1028,4 hPa - 0,0 km/h (0 Bft) - - -7,6 C -3,0 C 0,0 km/h (0 Bft)
_ Max-Zeit 14:10 00:50 00:40 23:55 23:55 - - 01:05 14:15 23:50
Maximum _ 9,7 C 89 % 1032,4 hPa 0,0 l/m 6,8 km/h
NO (2 Bft)
- - -1,5 C 15,6 C 15,1 km/h
O-SO (3 Bft)
Durchschnitt _ 1,1 C 66 % 1030,6 hPa #0,0 l/m 0,3 km/h (0 Bft) NO - -4,7 C 1,0 C 0,4 km/h (0 Bft)